{"data":{"norad_id":63871,"epoch":"2026-09-20T22:45:33.264288Z","epoch_age_seconds":108231,"freshness":"FRESH","line1":"1 63871U 25094H   26263.94830167  .00008357  00000+0  29479-3 0  9998","line2":"2 63871  69.9992  99.6524 0003441 270.6487  89.4293 15.29584848 76510","mean_motion":15.29584848,"eccentricity":0.0003441,"inclination_deg":69.9992,"raan_deg":99.6524,"arg_perigee_deg":270.6487,"mean_anomaly_deg":89.4293,"bstar":0.00029479,"rev_number":7651,"period_min":94.143191983293,"perigee_km":474.69354726784,"apogee_km":479.41128862527,"semimajor_km":6855.1894179466,"source":"CELESTRAK","updated_at":"2026-09-21T09:00:35.138468Z"}}